ICESAT-2

导读 | 星芒AI

ICESAT-2 是美国国家航空航天局(NASA)于2018年发射的卫星,主要用于测量地球冰层高度变化。它搭载先进的光子计数激光测高仪(ATLAS),以极高精度监测极地冰盖、海冰和陆地冰川的变化,为研究气候变化和海平面上升提供关键数据。ICESAT-2 的观测有助于科学家更好地理解全球冰层动态及其对环境的影响。

基本信息
目录编号:
43613
目录名称:
ICESAT-2
国际标识:
2018-070A
轨道中心:
EARTH
卫星名称:
ICESAT-2
卫星全名:
--
卫星状态:
在轨 (已飞行2648 天)
发射日期:
2018-09-15 UTC
国别 :
美国 (US)
星等 :
--
轨道信息
数据来源 国际轨道数据
星历时间: 2025-12-15T05:32:04+0800
20小时前
查看轨道信息
半长轴: 6859.037km
偏心率: 0.0002592
轨道倾角: 92.005°
近地点辐角 137.351°
升交点赤经 241.320°
平近点角 222.794°
近地点: 479.124km
远地点: 482.68km
周期: 94.222分钟
每日圈数: 15.28298
详细信息
使用方式:
暂无
2D轨道图
3D轨道图
轨道高度分析图
轨道倾角分析图
轨道综合分析图
查看轨道综合分析图